[[{"header":{"parameterUnit":"m.s-1","parameterCategory":1,"la1":30.2992,"la2":30.254,"lo1":-89.0895,"lo2":-89.0443,"dy":0.0025,"dx":0.0025,"nx":19,"ny":19,"refTime":"2026-04-17T09:00:00:Z","depth":0,"parameterNumber":2,"parameterNumberName":"U-component_of_WINDS"},"data":[0,0,0,0.7524,0.7527,0.7687,0.7688,0.7906,0.7908,0,0,0,0,0,0,0,0,0,0,0,0.7482,0.7483,0.7524,0.7528,0.7687,0.7688,0.7906,0.7908,0,0,0,0,0,0,0,0,0,0,0,0.7481,0.7483,0.7485,0.7528,0.7687,0.7688,0.7905,0.7781,0,0,0,0,0,0,0,0,0,0,0.7624,0.7589,0.7483,0.7485,0.7529,0.7687,0.7688,0.7775,0.7789,0.7839,0,0.7882,0,0.7898,0.7924,0.7924,0,0,0,0.7525,0.7577,0.7615,0.7485,0.7531,0.7687,0.7614,0.7782,0.7798,0.7858,0.7885,0.7893,0.7902,0.7925,0.7926,0.8219,0.8221,0,0,0.7516,0.7514,0.7604,0.7626,0.7598,0.7609,0.7619,0.7792,0.7823,0.7886,0.7898,0.7906,0.7927,0.7928,0.8218,0.822,0,0,0,0.7493,0.7508,0.7542,0.7617,0.7644,0.7614,0.7626,0.7815,0.7826,0.79,0.7908,0.7928,0.7931,0.8216,0.8218,0.8293,0,0,0,0.7487,0.7495,0.7538,0.7539,0.7641,0.7731,0.7646,0.7814,0.7834,0.7907,0.7928,0.7933,0.8214,0.8217,0.8287,0.833,0,0,0,0.747,0.7493,0.7517,0.7538,0.7606,0.7728,0.7749,0.7818,0.7839,0.7925,0.7933,0.8213,0.8217,0.8282,0.8322,0.8409,0,0,0,0.7452,0.7581,0.7518,0.7666,0.7605,0.777,0.7748,0.7872,0.7954,0.7929,0.8215,0.8218,0.828,0.8316,0.8404,0.8485,0.8518,0,0,0.7615,0.7601,0.7688,0.7636,0.7812,0.7746,0.7935,0.8013,0.8024,0.8154,0.8162,0.8289,0.8321,0.8408,0.8692,0.8718,0,0,0,0.7739,0.7802,0.7849,0.7925,0.7985,0.8042,0.809,0.8119,0.8229,0.8089,0.8342,0.8361,0.8412,0.8452,0.8474,0.852,0.8235,0.8234,0.8234,0.7971,0.7975,0.812,0.8144,0.8218,0.8265,0.8328,0.8375,0.8359,0.8418,0.8459,0.8631,0.8677,0.8693,0.8741,0.8498,0.8499,0.8499,0.8499,0.8214,0.8306,0.8277,0.8409,0.8413,0.8525,0.8576,0.856,0.8668,0.86,0.8646,0.8576,0.8721,0.8764,0.8505,0.8504,0.8503,0.8502,0.8502,0.8371,0.8416,0.8445,0.8556,0.8641,0.866,0.8764,0.8763,0.8764,0.8809,0.8854,0.8853,0.8856,0.8829,0.8829,0.883,0.8831,0.8831,0.8831,0.8524,0.8555,0.8641,0.8713,0.8763,0.8828,0.8875,0.8925,0.898,0.8973,0.8973,0.8954,0.8732,0.8679,0.8841,0.8839,0.8838,0.8837,0.8836,0.8778,0.8719,0.8852,0.8901,0.8988,0.9074,0.907,0.9171,0.9212,0.9264,0.9233,0.9067,0.9055,0.9037,0.8994,0.9228,0.9228,0.9228,0.9228,0.8914,0.8905,0.9041,0.912,0.9197,0.9206,0.9361,0.9398,0.943,0.9456,0.9421,0.9361,0.9343,0.9342,0.9318,0.9278,0.9579,0.9579,0.958,0.9073,0.9071,0.9202,0.9227,0.9294,0.9353,0.9499,0.9594,0.9616,0.9594,0.9478,0.9463,0.9367,0.9334,0.9316,0.9278,0.9204,0,0]},{"header":{"parameterUnit":"m.s-1","parameterCategory":1,"la1":30.2992,"la2":30.254,"lo1":-89.0895,"lo2":-89.0443,"dy":0.0025,"dx":0.0025,"nx":19,"ny":19,"refTime":"2026-04-17T09:00:00:Z","depth":0,"parameterNumber":3,"parameterNumberName":"V-component_of_WINDS"},"data":[0,0,0,3.9073,3.9076,3.9242,3.9243,3.9457,3.9459,0,0,0,0,0,0,0,0,0,0,0,3.9028,3.9029,3.9072,3.9077,3.9242,3.9243,3.9457,3.9459,0,0,0,0,0,0,0,0,0,0,0,3.9027,3.9029,3.9031,3.9077,3.9242,3.9243,3.9456,3.933,0,0,0,0,0,0,0,0,0,0,3.9168,3.9132,3.9028,3.9031,3.9078,3.9242,3.9243,3.9324,3.9338,3.9384,0,3.9429,0,3.9448,3.9474,3.9475,0,0,0,3.9073,3.912,3.9161,3.9031,3.908,3.9242,3.9166,3.9331,3.9347,3.9403,3.9432,3.944,3.9451,3.9475,3.9476,3.9763,3.9764,0,0,3.9063,3.9059,3.915,3.9172,3.9149,3.9161,3.9172,3.9341,3.9371,3.9433,3.9445,3.9455,3.9477,3.9478,3.9761,3.9763,0,0,0,3.904,3.9053,3.909,3.9163,3.9193,3.9166,3.9178,3.9364,3.9376,3.9447,3.9457,3.9478,3.9481,3.976,3.9762,3.9835,0,0,0,3.9034,3.9039,3.9086,3.9085,3.919,3.9281,3.9197,3.9365,3.9384,3.9456,3.9478,3.9483,3.9758,3.9761,3.9829,3.987,0,0,0,3.9015,3.9037,3.9063,3.9085,3.9156,3.9279,3.9301,3.9369,3.9391,3.9475,3.9484,3.9757,3.976,3.9824,3.9862,3.9945,0,0,0,3.8993,3.9124,3.9064,3.9213,3.9155,3.9323,3.93,3.9424,3.9505,3.9479,3.9758,3.9762,3.9823,3.9857,3.994,4.0015,4.0046,0,0,3.9156,3.9143,3.9232,3.9183,3.9361,3.9298,3.9486,3.9562,3.9572,3.9698,3.9705,3.9831,3.9861,3.9944,4.0219,4.0244,0,0,0,3.9281,3.9345,3.9393,3.9471,3.9534,3.9591,3.9639,3.9667,3.9775,3.9637,3.9883,3.9901,3.995,3.9986,4.0007,4.0049,3.9778,3.9778,3.9777,3.9506,3.9514,3.966,3.9687,3.9763,3.9811,3.9873,3.9918,3.9902,3.996,3.9998,4.0164,4.0207,4.0223,4.0266,4.0037,4.0038,4.0038,4.0038,3.9745,3.9836,3.9813,3.9947,3.9952,4.0063,4.0114,4.0099,4.0202,4.0137,4.018,4.0109,4.0249,4.0288,4.0044,4.0043,4.0042,4.0041,4.0041,3.9894,3.9939,3.9972,4.0086,4.0171,4.0192,4.0293,4.0294,4.0295,4.0338,4.0378,4.0377,4.0376,4.0356,4.0357,4.0358,4.0358,4.0359,4.0359,4.0036,4.0071,4.0157,4.0235,4.0285,4.035,4.0399,4.0447,4.05,4.0492,4.0493,4.0471,4.0262,4.021,4.0368,4.0366,4.0365,4.0364,4.0364,4.0279,4.0224,4.0357,4.0407,4.0497,4.0582,4.0581,4.0679,4.0718,4.0768,4.0736,4.0581,4.0568,4.0551,4.0508,4.0734,4.0734,4.0734,4.0734,4.0405,4.0399,4.0535,4.0615,4.0693,4.0706,4.0853,4.0891,4.0922,4.0946,4.0913,4.0855,4.0838,4.0835,4.0812,4.0772,4.106,4.1061,4.1061,4.0555,4.0556,4.0683,4.0714,4.0784,4.0843,4.0982,4.1073,4.1095,4.1074,4.0965,4.0951,4.0858,4.0828,4.0807,4.0771,4.0698,0,0]}]]